Regional Weather Roundup
Issued by NWS

Home | Current Version | Previous Version | Text Only | Print | Product List | Glossary Off
Versions: 1 2 3 4 5 6 7 8 9 10 11 12 13 14 15 16 17 18 19 20 21 22 23 24 25 26 27 28 29 30 31 32 33 34 35 36 37 38 39 40 41 42 43 44 45 46 47 48 49 50

000
ASUS43 KMKX 301700
RWRWI

WISCONSIN REGIONAL WEATHER ROUNDUP
NATIONAL WEATHER SERVICE MILWAUKEE/SULLIVAN WI
1200 PM CDT SAT AUG 30 2014

NOTE: "FAIR" INDICATES FEW OR NO CLOUDS BELOW 12,000 FEET WITH NO
SIGNIFICANT WEATHER AND/OR OBSTRUCTIONS TO VISIBILITY.

WIZ001-002-006>008-014>016-023>028-301800-
NORTHWEST WISCONSIN

CITY           SKY/WX    TMP DP  RH WIND       PRES   REMARKS
SUPERIOR ARPT  CLOUDY    66  61  84 E5        29.86S
ASHLAND        CLOUDY    63  60  90 NE8       29.87S
HAYWARD        CLOUDY    63  60  90 NE9       29.86R
SIREN          CLOUDY    65  60  82 NE6       29.86S
RICE LAKE      CLOUDY    65  61  87 N7        29.85S
LADYSMITH      CLOUDY    64  62  91 NW9       29.85S
EAU CLAIRE     PTSUNNY   72  66  81 N6        29.81R
MENOMONIE      CLOUDY    68  65  88 N9        29.83R
NEW RICHMOND   CLOUDY    66  63  88 N8        29.86R
OSCEOLA        CLOUDY    66  65  96 NE8       29.88S
$$

WIZ003>005-009-010-017-018-301800-
NORTH CENTRAL WISCONSIN

CITY           SKY/WX    TMP DP  RH WIND       PRES   REMARKS
WOODRUFF       CLOUDY    63  61  93 N10       29.81F
RHINELANDER    LGT RAIN  65  63  93 N7        29.80S
EAGLE RIVER    CLOUDY    64  64 100 N5        29.80S
LAND O LAKES   CLOUDY    64  61  93 N7        29.82S
PHILLIPS       CLOUDY    62  60  93 N6        29.82S
TOMAHAWK       CLOUDY    66  63  89 N6        29.81S
MEDFORD        CLOUDY    69  65  87 NW7       29.81S
MERRILL        CLOUDY    72  66  82 N10       29.79S
$$

WIZ029-030-035-036-043>047-301800-
CENTRAL WISCONSIN

CITY           SKY/WX    TMP DP  RH WIND       PRES   REMARKS
WAUSAU         RAIN      68  65  90 NW10      29.77S FOG
MOSINEE        DRIZZLE   70  66  88 NW8       29.80R
MARSHFIELD     CLOUDY    71  66  84 NW8       29.79F
STEVENS POINT  CLOUDY    69  64  82 CALM      29.79F
WAUPACA        PTSUNNY   75  67  76 NW8       29.78S
WAUTOMA        LGT RAIN  72  70  94 W7        29.78S
WISC RAPIDS    LGT RAIN  69  68  96 W7        29.80S FOG
CAMP DOUGLAS   LGT RAIN  68  68 100 W5        29.80S
$$

WIZ011>013-019>022-031-037>040-048>050-301800-
NORTHEAST WISCONSIN

CITY           SKY/WX    TMP DP  RH WIND       PRES   REMARKS
ANTIGO         CLOUDY    69  64  84 N7        29.79S
STURGEON BAY   CLOUDY    73  68  83 S12       29.73F
GREEN BAY      LGT RAIN  73  69  87 W12       29.74S
MANITOWOC      NOT AVBL
APPLETON       PTSUNNY   72  66  83 W10       29.77S
CLINTONVILLE   CLOUDY    70  64  83 W12       29.76S
OSHKOSH        CLOUDY    73  69  87 VRB5      29.76S
$$

WIZ032>034-041-042-053>061-301800-
SOUTHWEST WISCONSIN

CITY           SKY/WX    TMP DP  RH WIND       PRES   REMARKS
LA CROSSE      PTSUNNY   76  67  73 NW7       29.80S
SPARTA         CLOUDY    71  67  87 NW6       29.81S
VIROQUA        CLOUDY    71  69  96 NW8       29.83R
BOSCOBEL       CLOUDY    74  68  81 W6        29.82R
PRAIRIE DU CHI CLOUDY    73  65  77 NW5       29.82R
PLATTEVILLE    CLOUDY    72  69  90 W14G20    29.84S
$$

WIZ056-057-062-063-064-067-068-301800-
SOUTH CENTRAL WISCONSIN

CITY           SKY/WX    TMP DP  RH WIND       PRES   REMARKS
BARABOO/DELLS  LGT RAIN  68  65  92 NW7       29.79S
LONE ROCK      CLOUDY    75  69  81 W8        29.80S
WATERTOWN      PTSUNNY   75  69  81 SW12      29.79S
MADISON        LGT RAIN  70  67  90 SW6       29.80S FOG
MIDDLETON      CLOUDY    72  70  94 SW3       29.81S
MONROE         CLOUDY    72  64  78 SW14G22   29.82S
JANESVILLE     PTSUNNY   73  66  78 SW12G17   29.81S
$$

WIZ051-052-058>065-066-070>072-301800-
SOUTHEAST WISCONSIN

CITY           SKY/WX    TMP DP  RH WIND       PRES   REMARKS
MILWAUKEE      HVY RAIN  73  68  84 W15G22    29.80S
WAUKESHA       LGT RAIN  72  66  83 W13       29.81S FOG
MILWAUKEE/TIMM NOT AVBL
RACINE         PTSUNNY   78  66  66 SW21G30   29.81F HX  80
BURLINGTON     PTSUNNY   73  66  76 SW18G28   29.81S
KENOSHA        PTSUNNY   78  68  71 SW20G31   29.81F HX  80
FOND DU LAC    PTSUNNY   72  68  87 S13       29.77S
SHEBOYGAN      CLOUDY    77  66  68 SW14      29.77S
WEST BEND      CLOUDY    73  63  68 SW9G18    29.79S
JUNEAU         HVY RAIN  68  66  96 W8        29.81S
$$

LSZ147-162-301800-
LAKE SUPERIOR

STATION/POSITION TIME  TEMP    WIND        PRES    WAVE
                       AIR SEA DIR/SP/G            HT/PER
                 (UTC) (F)     (DEG/KT/KT) (MB)    (FT/S)
W MID LAKE BUOY  1550   59 57  360/  8/ 10 1010.5R   1
DEVILS ISLAND    1600   60      50/  3/  4 1011.1R
PORT WING        1600   63      10/  4/  4 1011.5
SAXON HARBOR     1600   62      30/  9/ 11 1011.2R
$$

LMZ867-665-643>646-301800-
LAKE MICHIGAN

STATION/POSITION TIME  TEMP    WIND        PRES    WAVE
                       AIR SEA DIR/SP/G            HT/PER
                 (UTC) (F)     (DEG/KT/KT) (MB)    (FT/S)
N MID LAKE BUOY  1550   67 65  200/ 16/ 17 1006.9R   4/ 6
NORTHPORT PIER   1600   71     140/  4/  8 1007.1R
SISTER BAY       1541   76     250/ 13/ 14   N/A
KEWAUNEE LAKESHO 1600   64     180/ 15/ 16 1006.7S
SHEBOYGAN LAKESH 1600   70 58  180/ 16/ 18 1007.9F
ATWATER BUOY     1600   71     210/ 12/ 16 1010.1F
MILWAUKEE LAKESH 1600   76     230/ 18/ 23   N/A
S MID LAKE BUOY  1550   71 69  190/ 14/ 16 1010.1    2/ 5
KENOSHA   LAKESH 1600   77     210/ 13/ 19 1009.5S
$$

TC  - TEMPERATURE IN CELSIUS
VSB - VISIBILITY IN STATUTE MILES
WCI - WIND CHILL INDEX
HX  - HEAT INDEX




USA.gov is the U.S. government's official web portal to all federal, state and local government web resources and services.